SCP
0 0 0 0 0 0 0 0 0 0 0 0 0 0 0 0 0 0 0 0 0 0 0 0 0 0 0 0 0 0 0 0 0 0 0 0 0 0 0 0 0 0 0
0 0 0 0 0 0 0 0 0 0 0 0 0 0 0 0 0 0 0 0 0 0 0 0 0 0 0 0 0 0 0 0 0 0 0 0 0 0 0 0 0 0 0
0 0 0 0 0 0 0 0 0 0 0 0 0 0 0 0 0 0 0 0 0 0 0 0 0 0 0 0 0 0 0 0 0 0 0 0 0 0 0 0 0 0 0
0 0 0 0 0 0 0 0 0 0 0 0 0 0 0 0 0 0 0 0 0 0 0 0 0 0 0 0 0 0 0 0 0 0 0 0 0 0 0 0 0 0 0
0 0 0 0 0 0 0 0 0 0 0 0 0 0 0 0 0 0 0 0 0 0 0 0 0 0 0 0 0 0 0 0 0 0 0 0 0 0 0 0 0 0 0
0 0 0 0 0 0 0 0 0 0 0 0 0 0 0 0 0 0 0 0 0 0 0 0 0 0 0 0 0 0 0 0 0 0 0 0 0 0 0 0 0 0 0
0 0 0 0 0 0 0 0 0 0 0 0 0 0 0 0 0 0 0 0 0 0 0 0 0 0 0 0 0 0 0 0 0 0 0 0 0 0 0 0 0 0 0
0 0 0 0 0 0 0 0 0 0 0 0 0 0 0 0 0 0 0 0 0 0 0 0 0 0 0 0 0 0 0 0 0 0 0 0 0 0 0 0 0 0 0
0 0 0 0 0 0 0 0 0 0 0 0 0 0 0 0 0 0 0 0 0 0 0 0 0 0 0 0 0 0 0 0 0 0 0 0 0 0 0 0 0 0 0
0 0 0 0 0 0 0 0 0 0 0 0 0 0 0 0 0 0 0 0 0 0 0 0 0 0 0 0 0 0 0 0 0 0 0 0 0 0 0 0 0 0 0
0 0 0 0 0 0 0 0 0 0 0 0 0 0 0 0 0 0 0 0 0 0 0 0 0 0 0 0 0 0 0 0 0 0 0 0 0 0 0 0 0 0 0
0 0 0 0 0 0 0 0 0 0 0 0 0 0 0 0 0 0 0 0 0 0 0 0 0 0 0 0 0 0 0 0 0 0 0 0 0 0 0 0 0 0 0
0 0 0 0 0 0 0 0 0 0 0 0 0 0 0 0 0 0 0 0 0 0 0 0 0 0 0 0 0 0 0 0 0 0 0 0 0 0 0 0 0 0 0
0 0 0 0 0 0 0 0 0 0 0 0 0 0 0 0 0 0 0 0 0 0 0 0 0 0 0 0 0 0 0 0 0 0 0 0 0 0 0 0 0 0 0
0 0 0 0 0 0 0 0 0 0 0 0 0 0 0 0 0 0 0 0 0 0 0 0 0 0 0 0 0 0 0 0 0 0 0 0 0 0 0 0 0 0 0
0 0 0 0 0 0 0 0 0 0 0 0 0 0 0 0 0 0 0 0 0 0 0 0 0 0 0 0 0 0 0 0 0 0 0 0 0 0 0 0 0 0 0
0 0 0 0 0 0 0 0 0 0 0 0 0 0 0 0 0 0 0 0 0 0 0 0 0 0 0 0 0 0 0 0 0 0 0 0 0 0 0 0 0 0 0
0 0 0 0 0 0 0 0 0 0 0 0 0 0 0 0 0 0 0 0 0 0 0 0 0 0 0 0 0 0 0 0 0 0 0 0 0 0 0 0 0 0 0
0 0 0 0 0 0 0 0 0 0 0 0 0 0 0 0 0 0 0 0 0 0 0 0 0 0 0 0 0 0 0 0 0 0 0 0 0 0 0 0 0 0 0
0 0 0 0 0 0 0 0 0 0 0 0 0 0 0 0 0 0 0 0 0 0 0 0 0 0 0 0 0 0 0 0 0 0 0 0 0 0 0 0 0 0 0
0 0 0 0 0 0 0 0 0 0 0 0 0 0 0 0 0 0 0 0 0 0 0 0 0 0 0 0 0 0 0 0 0 0 0 0 0 0 0 0 0 0 0
0 0 0 0 0 0 0 0 0 0 0 0 0 0 0 0 0 0 0 0 0 0 0 0 0 0 0 0 0 0 0 0 0 0 0 0 0 0 0 0 0 0 0
0 0 0 0 0 0 0 0 0 0 0 0 0 0 0 0 0 0 0 0 0 0 0 0 0 0 0 0 0 0 0 0 0 0 0 0 0 0 0 0 0 0 0
0 0 0 0 0 0 0 0 0 0 0 0 0 0 0 0 0 0 0 0 0 0 0 0 0 0 0 0 0 0 0 0 0 0 0 0 0 0 0 0 0 0 0
0 0 0 0 0 0 0 0 0 0 0 0 0 0 0 0 0 0 0 0 0 0 0 0 0 0 0 0 0 0 0 0 0 0 0 0 0 0 0 0 0 0 0
0 0 0 0 0 0 0 0 0 0 0 0 0 0 0 0 0 0 0 0 0 0 0 0 0 0 0 0 0 0 0 0 0 0 0 0 0 0 0 0 0 0 0
Wind_Speed_500mb
90 97 110 116 113 111 107 98 94 88 81 73 69 68 70 70 66 63 61 53 53 55 57 58 57 58 58 55 50 52 52 48 49 51 48 43 40 45 46 39 36 36 38
91 93 104 110 114 114 106 98 94 87 83 73 69 70 71 70 67 62 58 56 61 58 60 60 61 63 60 57 54 56 48 45 51 47 51 49 38 34 40 40 32 34 38
83 94 98 105 112 111 107 100 95 87 82 75 72 71 73 71 66 59 59 61 61 63 66 65 60 63 58 54 54 53 48 52 53 48 40 35 37 28 26 28 33 42 40
75 85 98 101 107 107 103 105 96 88 83 78 75 74 73 69 67 59 66 63 62 62 64 63 62 59 55 55 51 48 50 44 39 36 31 32 28 25 28 36 33 26 29
70 81 93 103 98 103 103 103 100 91 82 79 77 75 75 74 67 71 65 62 64 60 59 56 58 55 55 56 50 44 42 35 39 35 33 31 25 28 33 26 25 29 35
71 77 85 95 103 100 102 99 96 86 80 78 79 78 79 73 71 69 68 64 65 63 60 57 58 59 47 38 34 35 37 32 32 36 35 33 39 35 29 26 28 33 40
72 70 78 83 95 94 93 90 86 80 78 79 79 77 76 74 71 72 67 66 66 64 52 48 40 42 41 37 37 37 33 34 35 32 33 37 34 30 29 30 30 33 35
67 67 68 77 81 86 81 85 84 82 81 82 78 74 74 74 72 70 65 68 62 52 47 42 42 46 43 39 38 37 34 32 31 35 37 34 33 32 30 32 32 32 34
65 59 58 67 75 75 79 79 81 81 80 74 72 75 74 73 69 68 63 60 57 52 49 45 45 44 40 36 37 34 33 36 39 36 35 34 30 30 32 33 33 35 38
62 53 46 56 69 69 75 75 80 77 73 75 76 74 69 66 66 64 58 55 53 52 46 45 45 40 39 40 40 37 35 36 37 35 34 33 32 31 32 34 37 38 42
57 48 52 51 58 60 64 66 71 76 78 75 71 65 64 61 59 57 54 51 49 48 46 46 42 39 38 36 33 30 32 35 36 35 34 34 36 39 41 42 43 45 43
59 51 58 59 58 59 66 69 75 74 68 66 68 64 60 58 55 53 48 44 44 43 42 43 40 38 36 34 32 32 34 35 35 34 37 39 39 41 44 45 46 46 45
61 64 63 65 58 61 71 73 75 69 68 72 68 66 65 61 56 50 48 46 43 42 41 38 34 33 32 32 32 34 33 31 33 33 35 39 42 44 46 47 47 48 49
64 62 60 68 60 59 65 66 69 71 68 67 69 67 62 61 57 51 51 48 44 40 39 35 34 32 29 29 29 29 28 29 31 32 36 40 42 41 43 46 47 51 54
69 66 62 68 68 65 66 63 60 58 60 65 63 59 61 56 50 48 47 42 39 37 37 35 33 32 29 28 29 29 26 27 31 32 33 35 36 38 40 43 46 46 45
77 69 73 70 73 70 73 68 53 45 48 49 46 44 44 37 42 47 42 38 35 36 34 31 31 28 28 27 29 27 24 27 28 29 30 32 33 36 37 40 42 43 45
77 75 74 76 83 79 80 83 83 65 53 50 49 48 44 44 45 42 37 33 36 34 31 32 30 30 29 28 28 26 22 22 27 29 31 33 34 37 39 39 41 43 42
80 63 72 81 79 84 82 80 73 75 72 61 51 49 47 43 43 40 38 39 39 35 32 30 30 30 27 25 25 20 19 23 28 30 32 33 36 37 39 39 40 39 40
84 84 75 80 92 92 89 84 72 63 61 61 61 55 50 48 44 40 38 33 31 32 32 30 27 23 18 17 18 20 22 25 30 33 36 38 39 38 37 38 40 40 40
70 67 75 87 89 86 82 76 65 62 60 60 60 58 57 51 46 42 37 33 31 28 24 20 17 17 19 22 22 24 26 30 32 34 36 39 40 41 41 42 43 46 43
61 63 73 80 81 77 71 63 60 61 64 62 59 53 46 44 43 39 34 31 27 24 19 17 19 21 24 25 25 26 29 32 34 36 37 40 41 40 41 43 42 41 39
67 66 70 72 72 73 73 71 71 70 68 65 60 55 49 43 38 34 30 25 22 20 19 18 19 22 24 25 25 26 27 29 30 31 33 34 36 36 36 36 36 37 38
65 69 71 74 76 77 75 73 71 67 60 55 52 50 45 39 33 27 22 19 18 15 14 15 17 20 21 22 23 24 25 26 26 27 28 32 33 33 33 32 33 36 37
65 71 75 76 76 74 70 66 61 59 57 50 44 39 32 25 20 18 17 14 12 11 11 13 16 19 22 23 24 25 26 27 28 29 31 34 34 32 32 32 32 35 37
68 71 71 71 70 68 65 63 59 54 47 38 32 27 23 21 20 16 14 12 11 9 12 15 18 21 23 24 25 28 29 30 31 33 34 34 33 34 34 34 33 32 34
69 70 69 66 64 63 60 56 49 43 34 27 22 23 22 19 16 14 12 10 8 10 14 18 21 24 26 27 28 31 32 33 33 33 33 35 34 32 34 34 32 31 31
Wind_Direction_500mb
258 252 248 247 245 241 240 242 241 240 240 238 236 234 232 231 232 230 233 228 235 238 244 248 251 255 257 260 265 267 269 271 264 272 284 273 272 278 248 249 262 267 263
263 258 252 248 246 242 240 239 238 237 238 235 233 231 230 229 227 226 228 239 240 244 242 248 252 255 256 260 261 262 260 262 266 270 273 265 261 272 255 247 257 270 266
267 260 253 249 245 242 242 238 236 236 235 232 230 228 227 225 222 228 236 238 242 242 245 251 252 252 255 254 252 254 258 261 260 259 250 256 262 246 257 265 271 268 271
267 261 255 249 245 243 244 239 235 234 232 229 227 226 224 223 224 230 235 237 240 243 245 249 249 249 247 245 246 251 254 255 247 244 253 250 243 257 271 268 263 265 274
276 261 255 251 244 242 242 238 235 233 230 226 223 222 221 220 227 230 234 237 238 237 241 240 239 239 240 244 247 239 237 236 239 243 250 236 251 266 263 250 260 270 278
280 266 256 251 244 238 237 235 235 232 225 222 220 220 219 222 229 228 233 235 237 239 245 241 245 245 232 222 225 231 230 226 240 239 240 256 262 247 239 249 266 277 286
281 271 258 253 250 242 238 235 234 230 224 220 220 219 218 224 226 228 232 235 237 240 237 236 222 212 213 216 225 230 233 238 233 241 250 247 237 236 247 258 270 279 287
276 273 260 249 246 244 238 235 228 224 222 220 218 215 220 224 224 229 227 231 230 223 220 215 217 219 213 216 221 221 220 228 243 247 240 234 238 246 258 270 277 285 291
275 268 268 249 240 238 235 228 227 223 217 216 214 215 214 220 222 227 219 211 214 209 208 209 216 216 207 214 219 223 229 236 235 230 230 236 245 261 270 277 286 292 295
276 266 260 250 239 229 228 223 220 217 217 207 208 213 212 215 211 212 210 205 201 202 201 202 208 206 208 217 222 223 225 227 226 227 234 246 257 266 279 285 290 293 295
268 262 252 237 234 228 220 216 211 206 205 204 204 207 203 202 204 200 201 202 202 199 199 203 205 206 211 215 216 216 217 222 226 232 241 253 263 271 276 282 286 286 288
255 244 240 233 227 220 211 204 201 200 203 206 201 200 196 192 194 193 195 197 193 200 201 203 204 206 210 212 213 216 219 223 231 239 249 258 266 274 280 284 286 288 291
240 237 228 225 219 217 213 205 202 202 204 201 200 196 189 189 189 190 190 197 194 197 203 206 207 210 212 216 219 224 230 234 239 246 256 265 271 276 280 282 286 287 288
236 234 224 223 209 202 206 205 202 196 201 205 196 190 191 190 191 191 196 196 197 202 205 205 207 211 215 226 232 234 239 246 255 261 265 269 274 279 284 285 286 287 288
231 225 216 215 211 201 202 205 205 205 200 198 197 196 195 193 194 198 200 197 199 203 208 207 210 212 217 225 233 240 249 261 267 270 274 280 283 286 288 290 292 292 295
228 219 213 207 209 200 197 189 190 198 192 195 198 198 195 197 198 198 195 190 196 206 207 210 212 210 216 225 236 244 252 261 268 276 283 289 292 292 294 295 296 298 299
225 217 215 208 202 200 196 189 179 182 189 191 191 189 187 197 193 197 186 185 196 202 202 208 212 215 220 225 236 243 250 263 277 286 290 292 294 296 297 297 295 296 298
220 220 209 204 204 201 196 197 187 179 180 181 183 187 185 183 188 185 184 190 193 197 202 211 216 218 220 227 236 247 261 273 281 286 289 290 291 294 295 295 295 298 300
219 208 200 202 199 196 193 193 183 184 185 186 179 175 178 182 181 181 187 193 192 197 203 209 218 229 240 250 264 275 282 286 288 292 293 294 294 293 292 292 291 291 292
206 206 199 196 193 192 190 188 178 178 179 180 177 179 181 180 181 185 186 190 197 203 208 216 232 252 262 266 273 279 286 285 285 289 292 292 291 290 291 290 290 293 295
195 193 195 190 186 185 184 181 178 177 175 172 170 173 175 180 178 178 182 185 194 204 214 233 248 258 265 273 280 286 286 286 290 292 292 290 289 288 290 292 294 295 294
185 183 183 182 182 181 181 180 177 174 170 167 166 169 169 167 171 176 181 190 204 223 236 247 256 264 271 279 285 286 285 285 288 291 291 288 287 289 289 290 291 291 289
182 179 178 176 176 176 172 169 167 166 163 164 164 163 162 167 175 182 192 207 221 234 249 263 274 278 282 285 286 289 291 292 291 291 289 288 289 290 293 294 293 290 292
177 175 173 169 166 163 160 153 153 158 158 158 157 159 163 167 182 199 210 214 224 236 250 263 274 283 289 293 295 296 294 294 293 293 290 289 293 297 299 298 296 295 298
166 162 158 151 148 145 146 150 152 153 153 153 156 171 187 192 191 191 200 212 227 250 267 279 287 290 292 293 294 294 292 291 289 289 291 293 298 299 298 296 295 295 295
145 142 139 139 142 144 143 144 150 158 163 165 170 176 177 181 187 196 206 220 246 269 281 286 286 287 288 288 290 289 289 290 291 293 295 299 299 299 297 296 298 299 296
Wind_Speed_850mb
90 97 110 116 113 111 107 98 94 88 81 73 69 68 70 70 66 63 61 53 53 55 57 58 57 58 58 55 50 52 52 48 49 51 48 43 40 45 46 39 36 36 38
91 93 104 110 114 114 106 98 94 87 83 73 69 70 71 70 67 62 58 56 61 58 60 60 61 63 60 57 54 56 48 45 51 47 51 49 38 34 40 40 32 34 38
83 94 98 105 112 111 107 100 95 87 82 75 72 71 73 71 66 59 59 61 61 63 66 65 60 63 58 54 54 53 48 52 53 48 40 35 37 28 26 28 33 42 40
75 85 98 101 107 107 103 105 96 88 83 78 75 74 73 69 67 59 66 63 62 62 64 63 62 59 55 55 51 48 50 44 39 36 31 32 28 25 28 36 33 26 29
70 81 93 103 98 103 103 103 100 91 82 79 77 75 75 74 67 71 65 62 64 60 59 56 58 55 55 56 50 44 42 35 39 35 33 31 25 28 33 26 25 29 35
71 77 85 95 103 100 102 99 96 86 80 78 79 78 79 73 71 69 68 64 65 63 60 57 58 59 47 38 34 35 37 32 32 36 35 33 39 35 29 26 28 33 40
72 70 78 83 95 94 93 90 86 80 78 79 79 77 76 74 71 72 67 66 66 64 52 48 40 42 41 37 37 37 33 34 35 32 33 37 34 30 29 30 30 33 35
67 67 68 77 81 86 81 85 84 82 81 82 78 74 74 74 72 70 65 68 62 52 47 42 42 46 43 39 38 37 34 32 31 35 37 34 33 32 30 32 32 32 34
65 59 58 67 75 75 79 79 81 81 80 74 72 75 74 73 69 68 63 60 57 52 49 45 45 44 40 36 37 34 33 36 39 36 35 34 30 30 32 33 33 35 38
62 53 46 56 69 69 75 75 80 77 73 75 76 74 69 66 66 64 58 55 53 52 46 45 45 40 39 40 40 37 35 36 37 35 34 33 32 31 32 34 37 38 42
57 48 52 51 58 60 64 66 71 76 78 75 71 65 64 61 59 57 54 51 49 48 46 46 42 39 38 36 33 30 32 35 36 35 34 34 36 39 41 42 43 45 43
59 51 58 59 58 59 66 69 75 74 68 66 68 64 60 58 55 53 48 44 44 43 42 43 40 38 36 34 32 32 34 35 35 34 37 39 39 41 44 45 46 46 45
61 64 63 65 58 61 71 73 75 69 68 72 68 66 65 61 56 50 48 46 43 42 41 38 34 33 32 32 32 34 33 31 33 33 35 39 42 44 46 47 47 48 49
64 62 60 68 60 59 65 66 69 71 68 67 69 67 62 61 57 51 51 48 44 40 39 35 34 32 29 29 29 29 28 29 31 32 36 40 42 41 43 46 47 51 54
69 66 62 68 68 65 66 63 60 58 60 65 63 59 61 56 50 48 47 42 39 37 37 35 33 32 29 28 29 29 26 27 31 32 33 35 36 38 40 43 46 46 45
77 69 73 70 73 70 73 68 53 45 48 49 46 44 44 37 42 47 42 38 35 36 34 31 31 28 28 27 29 27 24 27 28 29 30 32 33 36 37 40 42 43 45
77 75 74 76 83 79 80 83 83 65 53 50 49 48 44 44 45 42 37 33 36 34 31 32 30 30 29 28 28 26 22 22 27 29 31 33 34 37 39 39 41 43 42
80 63 72 81 79 84 82 80 73 75 72 61 51 49 47 43 43 40 38 39 39 35 32 30 30 30 27 25 25 20 19 23 28 30 32 33 36 37 39 39 40 39 40
84 84 75 80 92 92 89 84 72 63 61 61 61 55 50 48 44 40 38 33 31 32 32 30 27 23 18 17 18 20 22 25 30 33 36 38 39 38 37 38 40 40 40
70 67 75 87 89 86 82 76 65 62 60 60 60 58 57 51 46 42 37 33 31 28 24 20 17 17 19 22 22 24 26 30 32 34 36 39 40 41 41 42 43 46 43
61 63 73 80 81 77 71 63 60 61 64 62 59 53 46 44 43 39 34 31 27 24 19 17 19 21 24 25 25 26 29 32 34 36 37 40 41 40 41 43 42 41 39
67 66 70 72 72 73 73 71 71 70 68 65 60 55 49 43 38 34 30 25 22 20 19 18 19 22 24 25 25 26 27 29 30 31 33 34 36 36 36 36 36 37 38
65 69 71 74 76 77 75 73 71 67 60 55 52 50 45 39 33 27 22 19 18 15 14 15 17 20 21 22 23 24 25 26 26 27 28 32 33 33 33 32 33 36 37
65 71 75 76 76 74 70 66 61 59 57 50 44 39 32 25 20 18 17 14 12 11 11 13 16 19 22 23 24 25 26 27 28 29 31 34 34 32 32 32 32 35 37
68 71 71 71 70 68 65 63 59 54 47 38 32 27 23 21 20 16 14 12 11 9 12 15 18 21 23 24 25 28 29 30 31 33 34 34 33 34 34 34 33 32 34
69 70 69 66 64 63 60 56 49 43 34 27 22 23 22 19 16 14 12 10 8 10 14 18 21 24 26 27 28 31 32 33 33 33 33 35 34 32 34 34 32 31 31
Wind_Direction_850mb
258 252 248 247 245 241 240 242 241 240 240 238 236 234 232 231 232 230 233 228 235 238 244 248 251 255 257 260 265 267 269 271 264 272 284 273 272 278 248 249 262 267 263
263 258 252 248 246 242 240 239 238 237 238 235 233 231 230 229 227 226 228 239 240 244 242 248 252 255 256 260 261 262 260 262 266 270 273 265 261 272 255 247 257 270 266
267 260 253 249 245 242 242 238 236 236 235 232 230 228 227 225 222 228 236 238 242 242 245 251 252 252 255 254 252 254 258 261 260 259 250 256 262 246 257 265 271 268 271
267 261 255 249 245 243 244 239 235 234 232 229 227 226 224 223 224 230 235 237 240 243 245 249 249 249 247 245 246 251 254 255 247 244 253 250 243 257 271 268 263 265 274
276 261 255 251 244 242 242 238 235 233 230 226 223 222 221 220 227 230 234 237 238 237 241 240 239 239 240 244 247 239 237 236 239 243 250 236 251 266 263 250 260 270 278
280 266 256 251 244 238 237 235 235 232 225 222 220 220 219 222 229 228 233 235 237 239 245 241 245 245 232 222 225 231 230 226 240 239 240 256 262 247 239 249 266 277 286
281 271 258 253 250 242 238 235 234 230 224 220 220 219 218 224 226 228 232 235 237 240 237 236 222 212 213 216 225 230 233 238 233 241 250 247 237 236 247 258 270 279 287
276 273 260 249 246 244 238 235 228 224 222 220 218 215 220 224 224 229 227 231 230 223 220 215 217 219 213 216 221 221 220 228 243 247 240 234 238 246 258 270 277 285 291
275 268 268 249 240 238 235 228 227 223 217 216 214 215 214 220 222 227 219 211 214 209 208 209 216 216 207 214 219 223 229 236 235 230 230 236 245 261 270 277 286 292 295
276 266 260 250 239 229 228 223 220 217 217 207 208 213 212 215 211 212 210 205 201 202 201 202 208 206 208 217 222 223 225 227 226 227 234 246 257 266 279 285 290 293 295
268 262 252 237 234 228 220 216 211 206 205 204 204 207 203 202 204 200 201 202 202 199 199 203 205 206 211 215 216 216 217 222 226 232 241 253 263 271 276 282 286 286 288
255 244 240 233 227 220 211 204 201 200 203 206 201 200 196 192 194 193 195 197 193 200 201 203 204 206 210 212 213 216 219 223 231 239 249 258 266 274 280 284 286 288 291
240 237 228 225 219 217 213 205 202 202 204 201 200 196 189 189 189 190 190 197 194 197 203 206 207 210 212 216 219 224 230 234 239 246 256 265 271 276 280 282 286 287 288
236 234 224 223 209 202 206 205 202 196 201 205 196 190 191 190 191 191 196 196 197 202 205 205 207 211 215 226 232 234 239 246 255 261 265 269 274 279 284 285 286 287 288
231 225 216 215 211 201 202 205 205 205 200 198 197 196 195 193 194 198 200 197 199 203 208 207 210 212 217 225 233 240 249 261 267 270 274 280 283 286 288 290 292 292 295
228 219 213 207 209 200 197 189 190 198 192 195 198 198 195 197 198 198 195 190 196 206 207 210 212 210 216 225 236 244 252 261 268 276 283 289 292 292 294 295 296 298 299
225 217 215 208 202 200 196 189 179 182 189 191 191 189 187 197 193 197 186 185 196 202 202 208 212 215 220 225 236 243 250 263 277 286 290 292 294 296 297 297 295 296 298
220 220 209 204 204 201 196 197 187 179 180 181 183 187 185 183 188 185 184 190 193 197 202 211 216 218 220 227 236 247 261 273 281 286 289 290 291 294 295 295 295 298 300
219 208 200 202 199 196 193 193 183 184 185 186 179 175 178 182 181 181 187 193 192 197 203 209 218 229 240 250 264 275 282 286 288 292 293 294 294 293 292 292 291 291 292
206 206 199 196 193 192 190 188 178 178 179 180 177 179 181 180 181 185 186 190 197 203 208 216 232 252 262 266 273 279 286 285 285 289 292 292 291 290 291 290 290 293 295
195 193 195 190 186 185 184 181 178 177 175 172 170 173 175 180 178 178 182 185 194 204 214 233 248 258 265 273 280 286 286 286 290 292 292 290 289 288 290 292 294 295 294
185 183 183 182 182 181 181 180 177 174 170 167 166 169 169 167 171 176 181 190 204 223 236 247 256 264 271 279 285 286 285 285 288 291 291 288 287 289 289 290 291 291 289
182 179 178 176 176 176 172 169 167 166 163 164 164 163 162 167 175 182 192 207 221 234 249 263 274 278 282 285 286 289 291 292 291 291 289 288 289 290 293 294 293 290 292
177 175 173 169 166 163 160 153 153 158 158 158 157 159 163 167 182 199 210 214 224 236 250 263 274 283 289 293 295 296 294 294 293 293 290 289 293 297 299 298 296 295 298
166 162 158 151 148 145 146 150 152 153 153 153 156 171 187 192 191 191 200 212 227 250 267 279 287 290 292 293 294 294 292 291 289 289 291 293 298 299 298 296 295 295 295
145 142 139 139 142 144 143 144 150 158 163 165 170 176 177 181 187 196 206 220 246 269 281 286 286 287 288 288 290 289 289 290 291 293 295 299 299 299 297 296 298 299 296